Tracking 29090 objects as of 15-Jul-2024
HD Live streaming from Space Station
objects crossing your sky now

SS 1

Track SS 1 now!
10-day predictions
SS 1 is classified as:


NORAD ID: 10529
Int'l Code: 1977-112D
Perigee: 508.5 km
Apogee: 1,380.1 km
Inclination: 63.3 °
Period: 103.8 minutes
Semi major axis: 7315 km
RCS: Unknown
Launch date: December 8, 1977
Source: United States (US)
Launch site: AIR FORCE WESTERN TEST RANGE (AFWTR)
Your satellite tracking list
Your tracking list is empty




NASA's NSSDC Master Catalog

Two Line Element Set (TLE):
1 10529U 77112D   24197.21345372  .00001172  00000-0  26149-3 0  9991
2 10529  63.3278 156.7040 0595726 152.2564 211.1657 13.87569792254641
Source of the keplerian elements: McCants